Regional Weather Roundup
Issued by NWS

Home | Current Version | Previous Version | Graphics & Text | Print | Product List | Glossary On
Versions: 1 2 3 4 5 6 7 8 9 10 11 12 13 14 15 16 17 18 19 20 21 22 23 24 25 26 27 28 29 30 31 32 33 34 35 36 37 38 39 40 41 42 43 44 45 46 47 48 49 50
000
ASUS43 KLSX 020507
RWRMO

WEATHER SUMMARY FOR MISSOURI
NATIONAL WEATHER SERVICE SPRINGFIELD MO
1200 AM CDT TUE JUN 02 2015

NOTE: "FAIR" INDICATES FEW OR NO CLOUDS BELOW 12,000 FEET WITH NO
       SIGNIFICANT WEATHER AND/OR OBSTRUCTIONS TO VISIBILITY.
       CURRENT SKY AND/OR WEATHER CONDITIONS ARE NOT AVAILABLE FOR
       CHILLICOTHE AND FARMINGTON.

MOZ001>031-035>038-043-044-053-054-020600-
...NORTHERN AND WESTERN MISSOURI...

CITY           SKY/WX    TMP DP  RH WIND       PRES   REMARKS
KANSAS CTY INT CLOUDY    60  54  80 S13       30.13S
KANSAS C DTWN  CLOUDY    62  52  69 SE8       30.13S
LEE`S SUMMIT   CLOUDY    60  53  77 VRB5      30.14S
ST JOSEPH      CLOUDY    62  54  74 SE12      30.12F
CHILLICOTHE      N/A     62  54  74 SE5       30.15F
KIRKSVILLE     CLEAR     54  53  97 S3        30.15F

$$
MOZ066>068-077>081-088>096-101>105-020600-
...SOUTHWEST MISSOURI...

CITY           SKY/WX    TMP DP  RH WIND       PRES   REMARKS
SPRINGFIELD    PTCLDY    57  54  89 E7        30.12S
JOPLIN         CLEAR     58  55  90 E8        30.11S

$$
MOZ032>034-039>042-045>050-055>058-069>072-020600-
...CENTRAL MISSOURI...

CITY           SKY/WX    TMP DP  RH WIND       PRES   REMARKS
COLUMBIA       CLOUDY    58  56  93 CALM      30.14F
JEFFERSON CITY CLOUDY    60  56  86 CALM      30.14F
ROLLA          CLOUDY    57  56  96 CALM      30.13F
SEDALIA        CLOUDY    61  54  77 SE6       30.15S
WHITEMAN AFB   CLOUDY    60  54  81 SE3       30.13F
WARRENSBURG    CLOUDY    59  52  77 E6        30.13F
OSAGE BEACH    CLOUDY    59  55  88 E5        30.14F

$$
MOZ051-052-059>065-020600-
...EAST CENTRAL MISSOURI...

CITY           SKY/WX    TMP DP  RH WIND       PRES   REMARKS
ST LOUIS INTL  MOCLDY    64  56  75 NE3       30.13F
SPIRIT OF STL  CLOUDY    59  58  96 CALM      30.12F
ST CHARLES     PTCLDY    61  56  83 NE8       30.11F

$$
MOZ072>076-082>087-097>100-106>115-020600-
...SOUTH CENTRAL AND SOUTHEAST MISSOURI...

CITY           SKY/WX    TMP DP  RH WIND       PRES   REMARKS
CAPE GIRARDEAU CLOUDY    61  56  83 NE6       30.11F
FARMINGTON     CLOUDY    59  55  88 CALM      30.16F
POPLAR BLUFF   CLOUDY    61  58  90 N5        30.10F
WEST PLAINS    CLOUDY    59  55  87 E5        30.14S

$$



USA.gov is the U.S. government's official web portal to all federal, state and local government web resources and services.